Location: Antin
(43.3330°N, 0.2804°E)
Time: 04:31:05
(UTC+00:00)

Cosmos 1697 Rocket - Pass Details

Date: 16 October 2021
Orbit: 834 x 842 km, 71.0° (Epoch: 02 December)

Event Time Altitude Azimuth Distance (km) Brightness Sun altitude
Rises 17:32:31 0° 190° (S) 3,382 6.1 -4.1°
Reaches altitude 10° 17:34:59 10° 187° (S) 2,451 5.3 -4.6°
Maximum altitude 17:40:29 58° 110° (ESE) 981 2.8 -5.6°
Drops below altitude 10° 17:46:00 10° 32° (NNE) 2,465 4.8 -6.6°
Sets 17:48:29 0° 29° (NNE) 3,402 5.5 -7.0°
